Overview Statistics Trail Chart Weather Telemetry Raw packets
 

This is the latest recevied weather packets stored in our database for station/object WW5JC. If no packets are shown the sender has not sent any weather packets the latest 10 day(s).

<< 79 80 81 82 83 84 85 >>
Time Temp. Humidity Pressure Rain* Wind** Luminosity Snow
1788052515 32.22° C 48% 1016.1 hPa 0 mm - 0 W/m² -
1788052210 32.22° C 47% 1016.3 hPa 0 mm - 0 W/m² -
1788051905 32.22° C 46% 1016.2 hPa 0 mm - 0 W/m² -
1788051600 32.78° C 46% 1016.2 hPa 0 mm - 1 W/m² -
1788051298 32.78° C 45% 1016.1 hPa 0 mm - 2 W/m² -
1788050997 32.78° C 44% 1016.1 hPa 0 mm - 4 W/m² -
1788050693 33.33° C 43% 1016 hPa 0 mm - 6 W/m² -
1788050392 33.33° C 43% 1016.1 hPa 0 mm - 8 W/m² -
1788050087 33.33° C 42% 1016.1 hPa 0 mm - 12 W/m² -
1788049784 33.89° C 41% 1016 hPa 0 mm - 15 W/m² -
1788049480 33.89° C 41% 1016.1 hPa 0 mm - 19 W/m² -
1788049175 34.44° C 41% 1015.9 hPa 0 mm - 22 W/m² -
1788048870 34.44° C 40% 1016 hPa 0 mm - 25 W/m² -
1788048565 35° C 39% 1016 hPa 0 mm - 33 W/m² -
1788048263 35° C 39% 1016.1 hPa 0 mm - 40 W/m² -
1788047960 35.56° C 38% 1016.1 hPa 0 mm - 43 W/m² -
1788047654 35.56° C 37% 1016.1 hPa 0 mm - 55 W/m² -
1788047349 36.11° C 36% 1016.2 hPa 0 mm - 61 W/m² -
1788047043 36.11° C 35% 1016 hPa 0 mm - 68 W/m² -
1788046738 36.11° C 36% 1016 hPa 0 mm - 75 W/m² -
1788046432 36.11° C 35% 1016.1 hPa 0 mm - 86 W/m² -
1788046130 36.67° C 35% 1016.2 hPa 0 mm - 95 W/m² -
1788045825 36.67° C 35% 1016.2 hPa 0 mm - 104 W/m² -
1788045520 36.67° C 34% 1016.3 hPa 0 mm - 113 W/m² -
1788045216 36.67° C 33% 1016.1 hPa 0 mm - 124 W/m² -

* Rain latest hour (hover to see other rain measurements)
** Current wind speed in m/s (hover to see current wind gust speed)